Location: Bo?a Wola
(50.4192°N, 19.7966°E)
Time: 02:26:26
(UTC+00:00)

GEOS 3 Rocket - Pass Details

Date: 26 September 2024
Orbit: 790 x 825 km, 115.0° (Epoch: 14 October)

Event Time Altitude Azimuth Distance (km) Brightness Sun altitude
Exits shadow 20:34:32 26° 278° (W) 1,532 5.3 -35.3°
Drops below altitude 10° 20:37:20 10° 304° (NW) 2,387 6.7 -35.6°
Sets 20:39:50 0° 313° (NW) 3,316 7.8 -35.8°
